Regional Weather Roundup
Issued by NWS Sioux Falls, SD

Home | Current Version | Previous Version | Text Only | Print | Product List | Glossary On
Versions: 1 2 3 4 5 6 7 8 9 10 11 12 13 14 15 16 17 18 19 20 21 22 23 24 25 26 27 28 29 30 31 32 33 34 35 36 37 38 39 40 41 42 43 44 45 46 47 48 49 50
000
ASUS43 KFSD 210010
RWRFSD

WEATHER ROUNDUP FOR SE SOUTH DAKOTA/SW MINNESOTA/NW IOWA
NATIONAL WEATHER SERVICE SIOUX FALLS SD
600 PM CST MON NOV 20 2017

NOTE: "FAIR" INDICATES FEW OR NO CLOUDS BELOW 12,000 FEET WITH NO
SIGNIFICANT WEATHER AND OR OBSTRUCTIONS TO VISIBILITY.


SDZ038>040-050-052>070-210100-
SOUTHEAST SOUTH DAKOTA

CITY           SKY/WX    TMP DP  RH WIND       PRES   REMARKS
BROOKINGS      CLOUDY    42  25  50 SW9       29.55R
CHAMBERLAIN    CLOUDY    55  22  28 NW9       29.61R
6HR MIN TEMP:  48; 6HR MAX TEMP:  65;

HURON          CLEAR     39  20  46 NW10      29.57R
6HR MIN TEMP:  39; 6HR MAX TEMP:  63;

MADISON        FAIR      43  25  49 W10       29.56R
MITCHELL       CLOUDY    51  23  33 W12       29.58R
6HR MIN TEMP:  49; 6HR MAX TEMP:  60;

SIOUX FALLS    MOCLDY    46  27  47 SW6       29.56R
6HR MIN TEMP:  43; 6HR MAX TEMP:  51;

WINNER         FAIR      51  20  29 NW7       29.65R
YANKTON        CLOUDY    48  27  44 SW5       29.60R
$$

MNZ071-072-080-081-089-090-097-098-210100-
SOUTHWEST MINNESOTA

CITY           SKY/WX    TMP DP  RH WIND       PRES   REMARKS
FAIRMONT       CLOUDY    44  30  57 SW14      29.53R
JACKSON        CLOUDY    43  28  56 SW13      29.54S
LUVERNE        CLOUDY    37  25  60 S3        29.56S
MARSHALL       CLOUDY    45  26  47 W16       29.52R
6HR MIN TEMP:  44; 6HR MAX TEMP:  54;

MONTEVIDEO     CLEAR     46  25  42 W6        29.48R
PIPESTONE      CLOUDY    37  25  60 SW7       29.54S
REDWOOD FALLS  CLOUDY    45  26  47 SW9       29.49R
WINDOM         PTCLDY    45  25  45 SW12      29.53R
WORTHINGTON    CLOUDY    45  26  47 SW15      29.55R
$$

IAZ001>003-012>014-020>022-031-032-NEZ013-014-SDZ071-210100-
NORTHWEST IOWA

CITY           SKY/WX    TMP DP  RH WIND       PRES   REMARKS
CHEROKEE       PTCLDY    42  28  58 S3        29.60R
DENISON        CLOUDY    48  28  46 CALM      29.65R
ESTHERVILLE    CLOUDY    43  30  60 SW14      29.55R
LE MARS        CLOUDY    39  28  65 CALM      29.60R
ORANGE CITY    PTCLDY    43  28  56 S6        29.58F
SHELDON        PTCLDY    45  28  53 SW8       29.56S
SIOUX CITY     CLOUDY    39  28  64 S3        29.61S
6HR MIN TEMP:  37; 6HR MAX TEMP:  54;

SPENCER        PTCLDY    45  29  53 SW8       29.57R
6HR MIN TEMP:  44; 6HR MAX TEMP:  50;

STORM LAKE     CLOUDY    43  28  56 SW10      29.59F
$$

ABBREVIATIONS USED IN REMARKS
   TC - TEMPERATURE IN CELSIUS
  WCI - WIND CHILL INDEX
   HX - HEAT INDEX
  VSB - VISIBILITY




USA.gov is the U.S. government's official web portal to all federal, state and local government web resources and services.